Location: Quebec
(46.8000°N, 71.2500°W)
Time: 01:53:24
(UTC-04:00)

Tiangong 1 - Pass Details

Date: 10 October 2017
Orbit: 294 x 320 km, 42.8° (Epoch: 17 October)

Event Time Altitude Azimuth Distance (km) Brightness Sun altitude
Rises 19:21:24 0° 259° (WSW) 2,040 6.4 -13.6°
Reaches altitude 10° 19:23:29 10° 249° (WSW) 1,205 4.6 -13.9°
Maximum altitude 19:25:58 33° 182° (S) 544 1.8 -14.4°
Enters shadow 19:26:40 28° 148° (SSE) 622 1.8 -14.5°
